Tracking 25693 objects as of 1-Jul-2022
HD Live streaming from Space Station
objects crossing your sky now

STARLINK-3296

Track STARLINK-3296 now!
10-day predictions
STARLINK-3296 is classified as:


NORAD ID: 50168
Int'l Code: 2021-125N
Perigee: 545.3 km
Apogee: 548.5 km
Inclination: 53.2 °
Period: 95.4 minutes
Semi major axis: 6917 km
RCS: Unknown
Launch date: December 18, 2021
Source: United States (US)
Launch site: AIR FORCE WESTERN TEST RANGE (AFWTR)
aabbcc
Your satellite tracking list
Your tracking list is empty




NASA's NSSDC Master Catalog

Two Line Element Set (TLE):
1 50168U 21125N   22182.25455121  .00000319  00000-0  38158-4 0  9993
2 50168  53.2160 177.9883 0002296  46.1359 313.9822 15.08835395 33189
Source of the keplerian elements: AFSPC